Showing default

CAPELLA-14 (ACADIA), 59444

Orbit data source: Space-Track

CAPELLA-14 (ACADIA), 59444 is a payload satellite owned by Capella Space (US) in LEO that was launched on Sun, 07 Apr 2024 UTC via an FALCON 9 launch vehicle from the Air Force Eastern Test Range (AFETR). Payload-class satellites include a variety of spacecraft equipped with specific instruments for various scientific and technological missions. These include communications satellites like Starlink; space stations such as the ISS; scientific satellites like the Hubble; Earth observation satellites from companies like Planet Labs, Umbra, and HawkEye 360; GPS; miniature CubeSats for education and research; and military/defense satellites.

Loading next visibility...
Identifier
59444, 2024-066C
Orbit
LEO
Last TLE update
1 day ago
Origin
Manufacturer
Capella Space
Mission
Operational spacecraft
Bus & Motor
ACADIA, Unknown motor
Mass
180 kg wet, ~150 kg dry
Launch date (UTC)
2024-04-07 (1 year ago)
Launch vehicle
FALCON 9
Launch site
Air Force Eastern Test Range (AFETR)
Object type
Payload
Rocket body
Debris
Shape & HBR
Unknown
Radar Cross Section
Large (>1 m²)

Expand to show TLE details & history

TLE from 1 day ago
0 CAPELLA-14 (ACADIA)
1 59444U 24066C   25183.33569147  .00007201  00000-0  57707-3 0  9990
2 59444  45.6067 286.1414 0007963 263.3034  96.6942 15.00745327 59709
Epoch: 2025-07-02T08:03Z
TLE epoch observation values (Epoch: 2025-07-02T08:03:23.743Z)
Latitude
0.00002°
Longitude
-115.32577°
Altitude
565.311 km
Speed
7.58 km/s
True Right ascension
19h 04m 33s
True Declination
0° 00' 00"
Sunlit
Object was in full shadow at epoch
Visualization orbit readout
Latitude
-41.19947°
Longitude
179.70865°
Altitude
572.309 km
Speed
7.578 km/s
Apparent Right ascension
14h 20m 07s
Apparent Declination
-40° 34' 41"
Sunlit
Object is in full shadow
Visualization observer readout
Local Sidereal Time
01:53:50
Azimuth
260.367° W
Elevation
-84.942°
Doppler factor
1
Orbital elements
Apogee altitude
571.616 km
Perigee altitude
560.557 km
Semi-major axis
6,944.223 km
Eccentricity
0.0008
Inclination
45.6067°
RAAN
286.1414°
Arg. of periapsis
263.3034°
True anomaly
Unknown
Mean anomaly
96.6942°
Eccentric anomaly
Unknown
Mean motion
3.75066 °/min
Orbital period
95.98 mins
BSTAR
0.00057707
Loading maneuver chart data...
Loading SW <> Apogee altitude chart data...
Loading historical data...
Loading historical data...
Loading historical data...
Loading historical data...
Loading historical data...
Loading historical data...
Loading historical data...

CAPELLA-14 (ACADIA) Visibility forecast

Observer location: undefined°, undefined°

Span
Click to sort rows by Start time (UTC) header in descending order
Start Az.
Max El. time (UTC)
Max El. Az.
Max El.
End time (UTC)
End Az.
8 mins2025-07-03 14:50:53.805Z297.038° NW2025-07-03 14:54:53.805Z30.051° NE43.983°2025-07-03 14:58:53.805Z108.535° ESE
5 mins2025-07-03 16:32:53.805Z263.154° W2025-07-03 16:34:53.805Z225.463° WSW23.528°2025-07-03 16:37:53.805Z169.317° S
7 mins2025-07-04 09:47:53.805Z232.477° WSW2025-07-04 09:50:53.805Z166.223° S43.222°2025-07-04 09:54:53.805Z68.397° E
6 mins2025-07-04 11:28:53.805Z283.106° WNW2025-07-04 11:31:53.805Z353.601° N34.443°2025-07-04 11:34:53.805Z56.691° ENE
6 mins2025-07-04 13:10:53.805Z313.354° NW2025-07-04 13:12:53.805Z7.126° NNE33.229°2025-07-04 13:16:53.805Z79.566° E
|